TimeCDT,TemperatureF,Dew PointF,Humidity,Sea Level PressureIn,VisibilityMPH,Wind Direction,Wind SpeedMPH,Gust SpeedMPH,PrecipitationIn,Events,Conditions,WindDirDegrees,DateUTC
12:15 AM,74.1,61.0,63,30.20,10.0,SSE,8.1,-,N/A,,Clear,160,2014-08-22 05:15:00
12:35 AM,73.0,61.2,66,30.20,10.0,SW,3.5,-,N/A,,Clear,220,2014-08-22 05:35:00
12:55 AM,72.3,61.2,68,30.19,10.0,SSW,4.6,-,N/A,,Clear,210,2014-08-22 05:55:00
1:15 AM,72.7,61.0,67,30.19,10.0,South,8.1,-,N/A,Thunderstorm,Clear,170,2014-08-22 06:15:00
1:35 AM,72.7,60.8,66,30.19,10.0,SSE,8.1,-,N/A,,Clear,160,2014-08-22 06:35:00
2:15 AM,70.9,60.8,70,30.19,10.0,Calm,Calm,-,N/A,,Clear,0,2014-08-22 07:15:00
2:35 AM,72.5,60.3,65,30.19,10.0,SW,6.9,-,N/A,,Mostly Cloudy,230,2014-08-22 07:35:00
2:55 AM,71.1,60.6,69,30.18,10.0,SW,6.9,-,N/A,,Scattered Clouds,220,2014-08-22 07:55:00
3:15 AM,70.9,60.1,69,30.18,10.0,SSW,6.9,-,N/A,,Clear,210,2014-08-22 08:15:00
3:35 AM,69.3,60.6,74,30.18,10.0,SSW,4.6,-,N/A,,Clear,200,2014-08-22 08:35:00
3:55 AM,68.2,60.8,77,30.17,10.0,SSW,5.8,-,N/A,,Clear,210,2014-08-22 08:55:00
4:15 AM,68.9,60.4,74,30.17,10.0,SSW,8.1,-,N/A,,Clear,210,2014-08-22 09:15:00
4:35 AM,68.7,60.4,75,30.17,10.0,SW,6.9,-,N/A,,Clear,220,2014-08-22 09:35:00
4:55 AM,68.4,60.4,76,30.17,10.0,SW,6.9,-,N/A,,Clear,220,2014-08-22 09:55:00
5:15 AM,69.3,60.1,72,30.19,10.0,SSW,5.8,-,N/A,,Clear,210,2014-08-22 10:15:00
5:35 AM,68.2,59.9,75,30.19,10.0,South,4.6,-,N/A,,Clear,190,2014-08-22 10:35:00
5:55 AM,66.7,60.1,79,30.19,10.0,SSW,5.8,-,N/A,,Clear,210,2014-08-22 10:55:00
6:15 AM,67.8,59.9,76,30.19,10.0,SW,5.8,-,N/A,,Clear,220,2014-08-22 11:15:00
6:35 AM,68.7,59.2,72,30.19,10.0,SSW,3.5,-,N/A,,Clear,200,2014-08-22 11:35:00
6:55 AM,68.5,59.4,72,30.19,10.0,SSW,5.8,-,N/A,,Clear,200,2014-08-22 11:55:00
7:15 AM,68.4,59.0,72,30.20,10.0,SSE,5.8,-,N/A,,Clear,150,2014-08-22 12:15:00
7:35 AM,68.5,59.0,72,30.20,10.0,South,5.8,-,N/A,,Clear,190,2014-08-22 12:35:00
7:55 AM,68.4,59.2,72,30.22,10.0,South,6.9,-,N/A,,Clear,180,2014-08-22 12:55:00
8:15 AM,71.1,59.0,66,30.21,10.0,South,4.6,-,N/A,,Clear,190,2014-08-22 13:15:00
8:35 AM,72.1,59.9,65,30.22,10.0,South,3.5,-,N/A,,Clear,190,2014-08-22 13:35:00
8:55 AM,73.4,59.4,61,30.22,10.0,South,6.9,-,N/A,,Clear,190,2014-08-22 13:55:00
9:15 AM,74.5,58.8,58,30.22,10.0,SSW,8.1,-,N/A,,Clear,200,2014-08-22 14:15:00
9:35 AM,76.3,58.8,55,30.22,10.0,South,8.1,-,N/A,,Clear,190,2014-08-22 14:35:00
9:55 AM,77.2,58.8,53,30.22,10.0,SSW,8.1,-,N/A,,Clear,200,2014-08-22 14:55:00
10:15 AM,78.6,59.4,51,30.22,10.0,South,9.2,-,N/A,,Clear,180,2014-08-22 15:15:00
10:35 AM,79.7,59.2,49,30.22,10.0,SSW,8.1,-,N/A,,Clear,200,2014-08-22 15:35:00
10:55 AM,80.6,59.4,48,30.21,10.0,South,8.1,-,N/A,,Clear,190,2014-08-22 15:55:00
11:15 AM,81.5,58.6,46,30.21,10.0,South,8.1,-,N/A,,Clear,190,2014-08-22 16:15:00
11:35 AM,82.2,58.6,45,30.22,10.0,South,8.1,-,N/A,,Clear,170,2014-08-22 16:35:00
11:55 AM,83.1,58.8,44,30.21,10.0,SSE,11.5,-,N/A,,Clear,150,2014-08-22 16:55:00
12:15 PM,83.7,57.9,41,30.21,10.0,South,8.1,-,N/A,,Clear,180,2014-08-22 17:15:00
12:35 PM,84.7,58.1,40,30.20,10.0,South,10.4,16.1,N/A,,Clear,170,2014-08-22 17:35:00
12:55 PM,84.7,57.6,39,30.20,10.0,South,10.4,17.3,N/A,,Clear,170,2014-08-22 17:55:00
1:15 PM,86.2,56.7,36,30.20,10.0,SSE,8.1,19.6,N/A,,Clear,150,2014-08-22 18:15:00
1:35 PM,85.3,55.8,36,30.19,10.0,South,12.7,16.1,N/A,,Clear,180,2014-08-22 18:35:00
1:55 PM,85.8,56.1,36,30.19,10.0,South,9.2,-,N/A,,Clear,170,2014-08-22 18:55:00
2:15 PM,87.4,55.0,33,30.19,10.0,SSW,9.2,-,N/A,,Scattered Clouds,200,2014-08-22 19:15:00
2:35 PM,87.1,55.2,34,30.19,10.0,SW,10.4,17.3,N/A,,Mostly Cloudy,220,2014-08-22 19:35:00
2:55 PM,87.8,55.6,33,30.17,10.0,South,10.4,18.4,N/A,,Mostly Cloudy,180,2014-08-22 19:55:00
3:15 PM,88.7,56.7,34,30.17,10.0,SSW,5.8,16.1,N/A,,Scattered Clouds,210,2014-08-22 20:15:00
3:35 PM,88.9,56.7,33,30.16,10.0,SW,9.2,24.2,N/A,,Scattered Clouds,230,2014-08-22 20:35:00
3:55 PM,89.2,54.9,31,30.15,10.0,SSW,9.2,-,N/A,,Clear,200,2014-08-22 20:55:00
4:15 PM,86.0,54.7,34,30.15,10.0,SSW,9.2,-,N/A,,Clear,210,2014-08-22 21:15:00
4:35 PM,86.0,55.0,35,30.14,10.0,SSW,6.9,-,N/A,,Scattered Clouds,210,2014-08-22 21:35:00
4:55 PM,85.6,54.9,35,30.13,10.0,South,6.9,-,N/A,,Mostly Cloudy,170,2014-08-22 21:55:00
5:15 PM,85.1,54.5,35,30.12,10.0,South,8.1,-,N/A,,Scattered Clouds,190,2014-08-22 22:15:00
5:35 PM,85.5,58.1,39,30.12,10.0,WSW,4.6,-,N/A,,Clear,250,2014-08-22 22:35:00
5:55 PM,86.0,56.3,36,30.11,10.0,WSW,3.5,-,N/A,,Clear,250,2014-08-22 22:55:00
6:15 PM,86.9,51.6,30,30.11,10.0,South,6.9,-,N/A,,Clear,190,2014-08-22 23:15:00
6:55 PM,88.0,51.6,29,30.11,10.0,South,10.4,-,N/A,,Scattered Clouds,180,2014-08-22 23:55:00
7:15 PM,87.1,52.0,30,30.11,10.0,South,10.4,-,N/A,,Clear,190,2014-08-23 00:15:00
7:35 PM,86.4,53.1,32,30.11,10.0,SSW,9.2,-,N/A,,Scattered Clouds,200,2014-08-23 00:35:00
7:55 PM,85.3,53.8,34,30.11,10.0,South,8.1,-,N/A,,Clear,180,2014-08-23 00:55:00
8:15 PM,84.0,54.7,36,30.12,10.0,SSW,8.1,-,N/A,Thunderstorm,Mostly Cloudy,210,2014-08-23 01:15:00
8:55 PM,80.6,54.9,41,30.13,10.0,ESE,11.5,16.1,N/A,,Mostly Cloudy,110,2014-08-23 01:55:00
9:15 PM,72.9,58.6,61,30.16,7.0,SE,18.4,39.1,N/A,Thunderstorm,Mostly Cloudy,130,2014-08-23 02:15:00
9:35 PM,70.0,62.6,77,30.16,10.0,SSE,3.5,-,0.06,Thunderstorm,Mostly Cloudy,160,2014-08-23 02:35:00
9:55 PM,72.3,61.3,68,30.17,3.0,SW,11.5,26.5,0.13,Thunderstorm,Thunderstorm,230,2014-08-23 02:55:00
10:15 PM,72.5,63.0,72,30.17,10.0,Calm,Calm,-,N/A,,Mostly Cloudy,0,2014-08-23 03:15:00
10:35 PM,70.7,65.8,85,30.17,10.0,Calm,Calm,-,N/A,,Clear,0,2014-08-23 03:35:00
10:55 PM,70.0,65.7,86,30.17,10.0,Calm,Calm,-,N/A,Thunderstorm,Clear,0,2014-08-23 03:55:00
11:15 PM,70.5,66.0,86,30.17,10.0,SW,4.6,-,N/A,,Scattered Clouds,230,2014-08-23 04:15:00
11:35 PM,70.9,66.4,86,30.17,10.0,Calm,Calm,-,N/A,,Mostly Cloudy,0,2014-08-23 04:35:00